Weather History for Crisp Cnty-Cordele AP, Cordel, GA

Change the Weather History Date:

Tuesday, April 22, 2014

  Actual Average (KABY) Record (KABY)
Temperature  
Mean Temperature 70 °F 68 °F  
Max Temperature 83 °F 81 °F 94 °F (1987)
Min Temperature 57 °F 55 °F 38 °F (1986)
Degree Days  
Heating Degree Days 0 1  
Month to date heating degree days 59  
Since 1 July heating degree days 1828  
Cooling Degree Days 5 4  
Month to date cooling degree days 63  
Year to date cooling degree days 101  
Growing Degree Days 20 (Base 50)    
Moisture  
Dew Point 61 °F    
Average Humidity 76    
Maximum Humidity 94    
Minimum Humidity 45    
Precipitation  
Precipitation 0.00 in - 1.45 in (2005)
Sea Level Pressure  
Sea Level Pressure 29.92 in    
Wind  
Wind Speed 3 mph (West)    
Max Wind Speed 14 mph    
Max Gust Speed 24 mph    
Visibility 10 miles    
Events      
T = Trace of Precipitation, MM = Missing Value Source: NWS Daily Summary

Daily Weather History Graph

Daily Weather History Graph

Search for Another Location

Airport:

Trip Planner

Search our weather history database for the weather conditions in past years. The results will help you decide how hot, cold, wet, or windy it might be!

Date:

Astronomy

Apr. 22, 2014 Rise Set
Actual Time 6:58 AM EDT 8:09 PM EDT
Civil Twilight 6:32 AM EDT 8:34 PM EDT
Nautical Twilight 6:02 AM EDT 9:05 PM EDT
Astronomical Twilight 5:31 AM EDT 9:36 PM EDT
Moon 2:21 AM EDT (4/22) 1:33 PM EDT (4/22)
Length of Visible Light 14h 01m
Length of Day
13h 10m
Last Quarter, 46% of the Moon is Illuminated
Apr 22
Last Quarter
Apr 29
New
May 6
First Quarter
May 14
Full
May 21
Last Quarter

Hourly Weather History & Observations

Time (EDT) Temp. Heat Index Dew Point Humidity Pressure Visibility Wind Dir Wind Speed Gust Speed Precip Events Conditions
12:15 AM 61.7 °F - 58.5 °F 89% 30.00 in 10.0 mi Calm Calm - N/A   Clear
12:35 AM 61.9 °F - 58.6 °F 89% 29.99 in 10.0 mi Calm Calm - N/A   Clear
12:55 AM 61.7 °F - 58.5 °F 89% 29.99 in 4.0 mi Calm Calm - N/A   Clear
1:15 AM 61.9 °F - 58.6 °F 89% 29.98 in 10.0 mi Calm Calm - N/A   Clear
1:35 AM 61.2 °F - 58.3 °F 90% 29.97 in 10.0 mi Calm Calm - N/A   Clear
1:55 AM 59.9 °F - 57.6 °F 92% 29.97 in 10.0 mi Calm Calm - N/A   Clear
2:15 AM 60.8 °F - 58.3 °F 91% 29.96 in 10.0 mi Calm Calm - N/A   Clear
2:35 AM 60.1 °F - 57.9 °F 93% 29.96 in 10.0 mi Calm Calm - N/A   Clear
2:55 AM 60.3 °F - 58.1 °F 93% 29.96 in 10.0 mi Calm Calm - N/A   Clear
3:15 AM 59.9 °F - 57.6 °F 92% 29.95 in 10.0 mi Calm Calm - N/A   Clear
3:35 AM 59.9 °F - 57.6 °F 92% 29.95 in 10.0 mi Calm Calm - N/A   Clear
3:55 AM 59.2 °F - 57.2 °F 93% 29.94 in 10.0 mi Calm Calm - N/A   Clear
4:15 AM 59.2 °F - 57.4 °F 94% 29.94 in 10.0 mi Calm Calm - N/A   Clear
4:35 AM 58.3 °F - 56.3 °F 93% 29.94 in 10.0 mi Calm Calm - N/A   Clear
4:55 AM 59.0 °F - 56.8 °F 93% 29.93 in 10.0 mi Calm Calm - N/A   Clear
5:15 AM 58.1 °F - 55.8 °F 92% 29.94 in 10.0 mi Calm Calm - N/A   Clear
5:35 AM 57.9 °F - 55.8 °F 92% 29.94 in 10.0 mi Calm Calm - N/A   Clear
5:55 AM 58.3 °F - 56.3 °F 93% 29.94 in 10.0 mi Calm Calm - N/A   Clear
6:15 AM 58.3 °F - 56.3 °F 93% 29.93 in 10.0 mi Calm Calm - N/A   Clear
6:35 AM 58.3 °F - 55.8 °F 91% 29.94 in 10.0 mi Calm Calm - N/A   Clear
6:55 AM 57.6 °F - 55.6 °F 93% 29.94 in 10.0 mi Calm Calm - N/A   Clear
7:15 AM 57.2 °F - 55.2 °F 93% 29.95 in 10.0 mi Calm Calm - N/A   Clear
7:35 AM 58.1 °F - 55.6 °F 91% 29.95 in 10.0 mi Calm Calm - N/A   Clear
7:55 AM 59.9 °F - 56.8 °F 90% 29.96 in 10.0 mi Calm Calm - N/A   Clear
8:15 AM 61.7 °F - 58.3 °F 89% 29.96 in 10.0 mi Calm Calm - N/A   Clear
8:35 AM 64.8 °F - 58.6 °F 81% 29.96 in 10.0 mi WSW 3.5 mph - N/A   Clear
8:55 AM 66.4 °F - 59.5 °F 79% 29.96 in 10.0 mi WSW 3.5 mph - N/A   Clear
9:15 AM 68.0 °F - 58.8 °F 72% 29.96 in 10.0 mi West 4.6 mph - N/A   Clear
9:35 AM 69.4 °F - 59.0 °F 69% 29.96 in 10.0 mi West 4.6 mph - N/A   Clear
9:55 AM 71.2 °F - 59.0 °F 65% 29.95 in 10.0 mi West 4.6 mph - N/A   Clear
10:15 AM 72.9 °F - 59.2 °F 62% 29.95 in 10.0 mi WNW 4.6 mph - N/A   Clear
10:35 AM 74.7 °F - 59.5 °F 59% 29.95 in 10.0 mi West 5.8 mph - N/A   Clear
10:55 AM 76.3 °F - 59.7 °F 56% 29.95 in 10.0 mi West 6.9 mph - N/A   Clear
11:15 AM 77.2 °F - 59.9 °F 55% 29.95 in 10.0 mi WSW 5.8 mph - N/A   Clear
11:35 AM 78.6 °F - 59.9 °F 52% 29.94 in 10.0 mi West 8.1 mph - N/A   Clear
11:55 AM 79.9 °F - 60.4 °F 51% 29.94 in 10.0 mi West 5.8 mph - N/A   Clear
12:15 PM 80.6 °F 81.4 °F 60.4 °F 50% 29.93 in 10.0 mi West 11.5 mph - N/A   Clear
12:35 PM 81.9 °F 82.3 °F 60.6 °F 48% 29.92 in 10.0 mi West 10.4 mph 16.1 mph N/A   Scattered Clouds
12:55 PM 81.7 °F 82.2 °F 60.3 °F 48% 29.91 in 10.0 mi West 10.4 mph 17.3 mph N/A   Mostly Cloudy
1:15 PM 81.5 °F 82.1 °F 60.4 °F 49% 29.90 in 10.0 mi West 13.8 mph - N/A   Mostly Cloudy
1:35 PM 82.6 °F 82.9 °F 60.3 °F 47% 29.90 in 10.0 mi West 13.8 mph 18.4 mph N/A   Mostly Cloudy
1:55 PM 81.5 °F 82.1 °F 60.8 °F 49% 29.89 in 10.0 mi West 8.1 mph - N/A   Overcast
2:15 PM 81.9 °F 82.6 °F 61.3 °F 50% 29.88 in 10.0 mi WSW 9.2 mph - N/A   Overcast
2:35 PM 82.9 °F 83.3 °F 61.0 °F 47% 29.88 in 10.0 mi West 10.4 mph - N/A   Mostly Cloudy
2:55 PM 83.7 °F 83.8 °F 60.1 °F 45% 29.87 in 10.0 mi West 9.2 mph - N/A   Mostly Cloudy
3:15 PM 83.5 °F 83.7 °F 61.0 °F 46% 29.86 in 10.0 mi West 9.2 mph - N/A   Mostly Cloudy
3:35 PM 83.1 °F 83.5 °F 60.8 °F 47% 29.86 in 10.0 mi West 11.5 mph - N/A   Mostly Cloudy
3:55 PM 81.1 °F 81.9 °F 60.8 °F 50% 29.86 in 10.0 mi West 10.4 mph - N/A   Overcast
4:15 PM 79.7 °F - 61.9 °F 54% 29.85 in 10.0 mi WSW 9.2 mph - N/A   Overcast
4:35 PM 80.6 °F 81.8 °F 62.4 °F 54% 29.85 in 10.0 mi West 10.4 mph - N/A   Overcast
4:55 PM 80.6 °F 81.7 °F 61.9 °F 53% 29.85 in 10.0 mi West 12.7 mph - N/A   Overcast
5:15 PM 79.7 °F - 62.6 °F 56% 29.86 in 10.0 mi WNW 11.5 mph 16.1 mph N/A   Overcast
5:35 PM 78.8 °F - 62.4 °F 57% 29.86 in 10.0 mi WNW 10.4 mph - N/A   Overcast
5:55 PM 75.9 °F - 63.7 °F 66% 29.86 in 10.0 mi NNW 11.5 mph 24.2 mph N/A   Overcast
6:15 PM 73.2 °F - 65.5 °F 77% 29.87 in 10.0 mi NNW 9.2 mph - N/A   Overcast
6:35 PM 72.1 °F - 65.7 °F 80% 29.87 in 10.0 mi NNW 5.8 mph - N/A   Overcast
6:55 PM 72.5 °F - 65.8 °F 80% 29.87 in 10.0 mi NE 3.5 mph - N/A   Overcast
7:15 PM 72.1 °F - 66.0 °F 81% 29.86 in 10.0 mi North 3.5 mph - N/A   Overcast
7:30 PM 71.8 °F - 66.2 °F 83% 29.87 in 10.0 mi NW 4.6 mph - N/A   Mostly Cloudy
7:55 PM 71.6 °F - 65.8 °F 82% 29.86 in 10.0 mi Calm Calm - N/A   Mostly Cloudy
8:15 PM 71.2 °F - 66.0 °F 84% 29.86 in 10.0 mi Calm Calm - N/A   Mostly Cloudy
8:35 PM 70.7 °F - 65.8 °F 85% 29.88 in 10.0 mi Calm Calm - N/A   Overcast
8:55 PM 70.9 °F - 65.8 °F 84% 29.88 in 10.0 mi Calm Calm - N/A   Overcast
9:15 PM 69.3 °F - 65.8 °F 89% 29.88 in 10.0 mi Calm Calm - N/A   Mostly Cloudy
9:35 PM 69.3 °F - 65.7 °F 88% 29.88 in 10.0 mi Calm Calm - N/A   Overcast
9:55 PM 68.7 °F - 65.5 °F 89% 29.89 in 10.0 mi Calm Calm - N/A   Mostly Cloudy
10:15 PM 67.6 °F - 65.1 °F 92% 29.89 in 7.0 mi Calm Calm - N/A   Scattered Clouds
10:35 PM 66.7 °F - 64.4 °F 92% 29.89 in 7.0 mi Calm Calm - N/A   Clear
10:55 PM 66.7 °F - 64.2 °F 92% 29.90 in 7.0 mi Calm Calm - N/A   Clear
11:15 PM 66.4 °F - 64.0 °F 92% 29.90 in 7.0 mi Calm Calm - N/A   Mostly Cloudy
11:35 PM 66.6 °F - 64.4 °F 93% 29.90 in 7.0 mi Calm Calm - N/A   Mostly Cloudy
11:55 PM 66.0 °F - 63.7 °F 92% 29.90 in 5.0 mi Calm Calm - N/A   Clear